Year,Month,Day,Hour,Minute,Value (Times are PST for temperature in C)
2019,10,26,00,00,5.30
2019,10,26,00,01,5.30
2019,10,26,00,02,5.30
2019,10,26,00,03,5.30
2019,10,26,00,04,5.30
2019,10,26,00,05,5.30
2019,10,26,00,06,5.30
2019,10,26,00,07,5.20
2019,10,26,00,08,5.20
2019,10,26,00,09,5.20
2019,10,26,00,10,5.20
2019,10,26,00,11,5.20
2019,10,26,00,12,5.20
2019,10,26,00,13,5.20
2019,10,26,00,14,5.20
2019,10,26,00,15,5.10
2019,10,26,00,16,5.10
2019,10,26,00,17,5.10
2019,10,26,00,18,5.10
2019,10,26,00,19,5.10
2019,10,26,00,20,5.00
2019,10,26,00,21,5.00
2019,10,26,00,22,4.90
2019,10,26,00,23,4.90
2019,10,26,00,24,4.90
2019,10,26,00,25,4.90
2019,10,26,00,26,4.90
2019,10,26,00,27,4.90
2019,10,26,00,28,4.90
2019,10,26,00,29,4.90
2019,10,26,00,30,4.80
2019,10,26,00,31,4.80
2019,10,26,00,32,4.80
2019,10,26,00,33,4.80
2019,10,26,00,34,4.80
2019,10,26,00,35,4.80
2019,10,26,00,36,4.80
2019,10,26,00,37,4.70
2019,10,26,00,38,4.70
2019,10,26,00,39,4.70
2019,10,26,00,40,4.70
2019,10,26,00,41,4.70
2019,10,26,00,42,4.70
2019,10,26,00,43,4.70
2019,10,26,00,44,4.70
2019,10,26,00,45,4.70
2019,10,26,00,46,4.70
2019,10,26,00,47,4.70
2019,10,26,00,48,4.70
2019,10,26,00,49,4.70
2019,10,26,00,50,4.70
2019,10,26,00,51,4.70
2019,10,26,00,52,4.70
2019,10,26,00,53,4.70
2019,10,26,00,54,4.70
2019,10,26,00,55,4.70
2019,10,26,00,56,4.60
2019,10,26,00,57,4.60
2019,10,26,00,58,4.60
2019,10,26,00,59,4.60
2019,10,26,01,00,4.50
2019,10,26,01,01,4.50
2019,10,26,01,02,4.40
2019,10,26,01,03,4.40
2019,10,26,01,04,4.40
2019,10,26,01,05,4.30
2019,10,26,01,06,4.30
2019,10,26,01,07,4.30
2019,10,26,01,08,4.30
2019,10,26,01,09,4.30
2019,10,26,01,10,4.30
2019,10,26,01,11,4.30
2019,10,26,01,12,4.30
2019,10,26,01,13,4.30
2019,10,26,01,14,4.20
2019,10,26,01,15,4.20
2019,10,26,01,16,4.20
2019,10,26,01,17,4.20
2019,10,26,01,18,4.20
2019,10,26,01,19,4.20
2019,10,26,01,20,4.20
2019,10,26,01,21,4.20
2019,10,26,01,22,4.10
2019,10,26,01,23,4.10
2019,10,26,01,24,4.10
2019,10,26,01,25,4.20
2019,10,26,01,26,4.20
2019,10,26,01,27,4.20
2019,10,26,01,28,4.20
2019,10,26,01,29,4.20
2019,10,26,01,30,4.20
2019,10,26,01,31,4.20
2019,10,26,01,32,4.10
2019,10,26,01,33,4.10
2019,10,26,01,34,4.10
2019,10,26,01,35,4.10
2019,10,26,01,36,4.10
2019,10,26,01,37,4.10
2019,10,26,01,38,4.10
2019,10,26,01,39,4.10
2019,10,26,01,40,4.10
2019,10,26,01,41,4.10
2019,10,26,01,42,4.10
2019,10,26,01,43,4.10
2019,10,26,01,44,4.10
2019,10,26,01,45,4.10
2019,10,26,01,46,4.00
2019,10,26,01,47,4.00
2019,10,26,01,48,4.00
2019,10,26,01,49,4.00
2019,10,26,01,50,4.00
2019,10,26,01,51,3.90
2019,10,26,01,52,3.90
2019,10,26,01,53,3.90
2019,10,26,01,54,3.90
2019,10,26,01,55,3.90
2019,10,26,01,56,3.90
2019,10,26,01,57,3.90
2019,10,26,01,58,3.90
2019,10,26,01,59,3.90
2019,10,26,02,00,3.90
2019,10,26,02,01,3.90
2019,10,26,02,02,3.90
2019,10,26,02,03,3.90
2019,10,26,02,04,3.90
2019,10,26,02,05,3.80
2019,10,26,02,06,3.80
2019,10,26,02,07,3.80
2019,10,26,02,08,3.80
2019,10,26,02,09,3.80
2019,10,26,02,10,3.80
2019,10,26,02,11,3.80
2019,10,26,02,12,3.70
2019,10,26,02,13,3.70
2019,10,26,02,14,3.70
2019,10,26,02,15,3.70
2019,10,26,02,16,3.70
2019,10,26,02,17,3.70
2019,10,26,02,18,3.70
2019,10,26,02,19,3.70
2019,10,26,02,20,3.70
2019,10,26,02,21,3.70
2019,10,26,02,22,3.70
2019,10,26,02,23,3.70
2019,10,26,02,24,3.70
2019,10,26,02,25,3.70
2019,10,26,02,26,3.70
2019,10,26,02,27,3.70
2019,10,26,02,28,3.70
2019,10,26,02,29,3.70
2019,10,26,02,30,3.70
2019,10,26,02,31,3.60
2019,10,26,02,32,3.60
2019,10,26,02,33,3.60
2019,10,26,02,34,3.60
2019,10,26,02,35,3.60
2019,10,26,02,36,3.60
2019,10,26,02,37,3.60
2019,10,26,02,38,3.60
2019,10,26,02,39,3.60
2019,10,26,02,40,3.60
2019,10,26,02,41,3.60
2019,10,26,02,42,3.60
2019,10,26,02,43,3.60
2019,10,26,02,44,3.50
2019,10,26,02,45,3.50
2019,10,26,02,46,3.50
2019,10,26,02,47,3.40
2019,10,26,02,48,3.40
2019,10,26,02,49,3.40
2019,10,26,02,50,3.40
2019,10,26,02,51,3.40
2019,10,26,02,52,3.40
2019,10,26,02,53,3.40
2019,10,26,02,54,3.40
2019,10,26,02,55,3.40
2019,10,26,02,56,3.40
2019,10,26,02,57,3.40
2019,10,26,02,58,3.40
2019,10,26,02,59,3.40
2019,10,26,03,00,3.30
2019,10,26,03,01,3.30
2019,10,26,03,02,3.30
2019,10,26,03,03,3.30
2019,10,26,03,04,3.40
2019,10,26,03,05,3.40
2019,10,26,03,06,3.50
2019,10,26,03,07,3.50
2019,10,26,03,08,3.50
2019,10,26,03,09,3.50
2019,10,26,03,10,3.40
2019,10,26,03,11,3.40
2019,10,26,03,12,3.40
2019,10,26,03,13,3.40
2019,10,26,03,14,3.40
2019,10,26,03,15,3.30
2019,10,26,03,16,3.30
2019,10,26,03,17,3.30
2019,10,26,03,18,3.30
2019,10,26,03,19,3.30
2019,10,26,03,20,3.30
2019,10,26,03,21,3.30
2019,10,26,03,22,3.30
2019,10,26,03,23,3.30
2019,10,26,03,24,3.30
2019,10,26,03,25,3.30
2019,10,26,03,26,3.30
2019,10,26,03,27,3.30
2019,10,26,03,28,3.30
2019,10,26,03,29,3.30
2019,10,26,03,30,3.30
2019,10,26,03,31,3.30
2019,10,26,03,32,3.30
2019,10,26,03,33,3.30
2019,10,26,03,34,3.30
2019,10,26,03,35,3.30
2019,10,26,03,36,3.30
2019,10,26,03,37,3.30
2019,10,26,03,38,3.20
2019,10,26,03,39,3.20
2019,10,26,03,40,3.20
2019,10,26,03,41,3.20
2019,10,26,03,42,3.20
2019,10,26,03,43,3.20
2019,10,26,03,44,3.20
2019,10,26,03,45,3.20
2019,10,26,03,46,3.20
2019,10,26,03,47,3.20
2019,10,26,03,48,3.20
2019,10,26,03,49,3.10
2019,10,26,03,50,3.20
2019,10,26,03,51,3.10
2019,10,26,03,52,3.10
2019,10,26,03,53,3.10
2019,10,26,03,54,3.10
2019,10,26,03,55,3.10
2019,10,26,03,56,3.00
2019,10,26,03,57,3.00
2019,10,26,03,58,2.90
2019,10,26,03,59,2.90
2019,10,26,04,00,2.90
2019,10,26,04,01,2.90
2019,10,26,04,02,2.90
2019,10,26,04,03,2.90
2019,10,26,04,04,2.90
2019,10,26,04,05,2.90
2019,10,26,04,06,2.80
2019,10,26,04,07,2.80
2019,10,26,04,08,2.80
2019,10,26,04,09,2.80
2019,10,26,04,10,2.80
2019,10,26,04,11,2.80
2019,10,26,04,12,2.80
2019,10,26,04,13,2.80
2019,10,26,04,14,2.80
2019,10,26,04,15,2.70
2019,10,26,04,16,2.70
2019,10,26,04,17,2.70
2019,10,26,04,18,2.70
2019,10,26,04,19,2.70
2019,10,26,04,20,2.70
2019,10,26,04,21,2.70
2019,10,26,04,22,2.70
2019,10,26,04,23,2.70
2019,10,26,04,24,2.70
2019,10,26,04,25,2.70
2019,10,26,04,26,2.70
2019,10,26,04,27,2.70
2019,10,26,04,28,2.70
2019,10,26,04,29,2.70
2019,10,26,04,30,2.70
2019,10,26,04,31,2.70
2019,10,26,04,32,2.70
2019,10,26,04,33,2.70
2019,10,26,04,34,2.70
2019,10,26,04,35,2.70
2019,10,26,04,36,2.70
2019,10,26,04,37,2.70
2019,10,26,04,38,2.70
2019,10,26,04,39,2.70
2019,10,26,04,40,2.70
2019,10,26,04,41,2.70
2019,10,26,04,42,2.70
2019,10,26,04,43,2.70
2019,10,26,04,44,2.70
2019,10,26,04,45,2.70
2019,10,26,04,46,2.70
2019,10,26,04,47,2.70
2019,10,26,04,48,2.70
2019,10,26,04,49,2.70
2019,10,26,04,50,2.70
2019,10,26,04,51,2.70
2019,10,26,04,52,2.70
2019,10,26,04,53,2.70
2019,10,26,04,54,2.70
2019,10,26,04,55,2.70
2019,10,26,04,56,2.70
2019,10,26,04,57,2.70
2019,10,26,04,58,2.70
2019,10,26,04,59,2.70
2019,10,26,05,00,2.70
2019,10,26,05,01,2.70
2019,10,26,05,02,2.70
2019,10,26,05,03,2.70
2019,10,26,05,04,2.70
2019,10,26,05,05,2.70
2019,10,26,05,06,2.70
2019,10,26,05,07,2.70
2019,10,26,05,08,2.70
2019,10,26,05,09,2.70
2019,10,26,05,10,2.80
2019,10,26,05,11,2.80
2019,10,26,05,12,2.80
2019,10,26,05,13,2.80
2019,10,26,05,14,2.90
2019,10,26,05,15,2.90
2019,10,26,05,16,2.90
2019,10,26,05,17,2.90
2019,10,26,05,18,2.80
2019,10,26,05,19,2.80
2019,10,26,05,20,2.80
2019,10,26,05,21,2.80
2019,10,26,05,22,2.80
2019,10,26,05,23,2.70
2019,10,26,05,24,2.80
2019,10,26,05,25,2.70
2019,10,26,05,26,2.70
2019,10,26,05,27,2.70
2019,10,26,05,28,2.80
2019,10,26,05,29,2.80
2019,10,26,05,30,2.80
2019,10,26,05,31,2.80
2019,10,26,05,32,2.80
2019,10,26,05,33,2.80
2019,10,26,05,34,2.80
2019,10,26,05,35,2.80
2019,10,26,05,36,2.80
2019,10,26,05,37,2.80
2019,10,26,05,38,2.80
2019,10,26,05,39,2.80
2019,10,26,05,40,2.80
2019,10,26,05,41,2.80
2019,10,26,05,42,2.80
2019,10,26,05,43,2.80
2019,10,26,05,44,2.70
2019,10,26,05,45,2.70
2019,10,26,05,46,2.70
2019,10,26,05,47,2.70
2019,10,26,05,48,2.70
2019,10,26,05,49,2.70
2019,10,26,05,50,2.70
2019,10,26,05,51,2.70
2019,10,26,05,52,2.70
2019,10,26,05,53,2.70
2019,10,26,05,54,2.70
2019,10,26,05,55,2.60
2019,10,26,05,56,2.60
2019,10,26,05,57,2.60
2019,10,26,05,58,2.60
2019,10,26,05,59,2.60
2019,10,26,06,00,2.50
2019,10,26,06,01,2.50
2019,10,26,06,02,2.50
2019,10,26,06,03,2.40
2019,10,26,06,04,2.40
2019,10,26,06,05,2.40
2019,10,26,06,06,2.40
2019,10,26,06,07,2.40
2019,10,26,06,08,2.40
2019,10,26,06,09,2.40
2019,10,26,06,10,2.40
2019,10,26,06,11,2.40
2019,10,26,06,12,2.40
2019,10,26,06,13,2.40
2019,10,26,06,14,2.40
2019,10,26,06,15,2.40
2019,10,26,06,16,2.50
2019,10,26,06,17,2.50
2019,10,26,06,18,2.50
2019,10,26,06,19,2.50
2019,10,26,06,20,2.60
2019,10,26,06,21,2.60
2019,10,26,06,22,2.60
2019,10,26,06,23,2.60
2019,10,26,06,24,2.60
2019,10,26,06,25,2.60
2019,10,26,06,26,2.60
2019,10,26,06,27,2.60
2019,10,26,06,28,2.60
2019,10,26,06,29,2.60
2019,10,26,06,30,2.60
2019,10,26,06,31,2.60
2019,10,26,06,32,2.60
2019,10,26,06,33,2.60
2019,10,26,06,34,2.60
2019,10,26,06,35,2.60
2019,10,26,06,36,2.60
2019,10,26,06,37,2.60
2019,10,26,06,38,2.70
2019,10,26,06,39,2.60
2019,10,26,06,40,2.70
2019,10,26,06,41,2.60
2019,10,26,06,42,2.60
2019,10,26,06,43,2.60
2019,10,26,06,44,2.60
2019,10,26,06,45,2.60
2019,10,26,06,46,2.60
2019,10,26,06,47,2.60
2019,10,26,06,48,2.50
2019,10,26,06,49,2.50
2019,10,26,06,50,2.50
2019,10,26,06,51,2.50
2019,10,26,06,52,2.40
2019,10,26,06,53,2.40
2019,10,26,06,54,2.40
2019,10,26,06,55,2.40
2019,10,26,06,56,2.40
2019,10,26,06,57,2.40
2019,10,26,06,58,2.40
2019,10,26,06,59,2.40
2019,10,26,07,00,2.40
2019,10,26,07,01,2.40
2019,10,26,07,02,2.30
2019,10,26,07,03,2.30
2019,10,26,07,04,2.30
2019,10,26,07,05,2.30
2019,10,26,07,06,2.30
2019,10,26,07,07,2.30
2019,10,26,07,08,2.30
2019,10,26,07,09,2.30
2019,10,26,07,10,2.30
2019,10,26,07,11,2.30
2019,10,26,07,12,2.30
2019,10,26,07,13,2.30
2019,10,26,07,14,2.30
2019,10,26,07,15,2.30
2019,10,26,07,16,2.30
2019,10,26,07,17,2.30
2019,10,26,07,18,2.30
2019,10,26,07,19,2.30
2019,10,26,07,20,2.30
2019,10,26,07,21,2.30
2019,10,26,07,22,2.30
2019,10,26,07,23,2.30
2019,10,26,07,24,2.30
2019,10,26,07,25,2.30
2019,10,26,07,26,2.30
2019,10,26,07,27,2.30
2019,10,26,07,28,2.30
2019,10,26,07,29,2.30
2019,10,26,07,30,2.20
2019,10,26,07,31,2.20
2019,10,26,07,32,2.20
2019,10,26,07,33,2.20
2019,10,26,07,34,2.20
2019,10,26,07,35,2.20
2019,10,26,07,36,2.20
2019,10,26,07,37,2.20
2019,10,26,07,38,2.20
2019,10,26,07,39,2.20
2019,10,26,07,40,2.20
2019,10,26,07,41,2.20
2019,10,26,07,42,2.20
2019,10,26,07,43,2.10
2019,10,26,07,44,2.10
2019,10,26,07,45,2.10
2019,10,26,07,46,2.10
2019,10,26,07,47,2.10
2019,10,26,07,48,2.10
2019,10,26,07,49,2.10
2019,10,26,07,50,2.10
2019,10,26,07,51,2.10
2019,10,26,07,52,2.10
2019,10,26,07,53,2.00
2019,10,26,07,54,2.00
2019,10,26,07,55,2.00
2019,10,26,07,56,2.00
2019,10,26,07,57,2.00
2019,10,26,07,58,1.90
2019,10,26,07,59,1.90
2019,10,26,08,00,1.90
2019,10,26,08,01,1.90
2019,10,26,08,02,1.90
2019,10,26,08,03,1.90
2019,10,26,08,04,1.90
2019,10,26,08,05,1.90
2019,10,26,08,06,1.90
2019,10,26,08,07,1.90
2019,10,26,08,08,1.90
2019,10,26,08,09,1.90
2019,10,26,08,10,1.90
2019,10,26,08,11,1.90
2019,10,26,08,12,1.80
2019,10,26,08,13,1.80
2019,10,26,08,14,1.80
2019,10,26,08,15,1.80
2019,10,26,08,16,1.80
2019,10,26,08,17,1.80
2019,10,26,08,18,1.80
2019,10,26,08,19,1.80
2019,10,26,08,20,1.80
2019,10,26,08,21,1.80
2019,10,26,08,22,1.80
2019,10,26,08,23,1.80
2019,10,26,08,24,1.80
2019,10,26,08,25,1.80
2019,10,26,08,26,1.80
2019,10,26,08,27,1.80
2019,10,26,08,28,1.80
2019,10,26,08,29,1.80
2019,10,26,08,30,1.80
2019,10,26,08,31,1.80
2019,10,26,08,32,1.80
2019,10,26,08,33,1.80
2019,10,26,08,34,1.80
2019,10,26,08,35,1.80
2019,10,26,08,36,1.80
2019,10,26,08,37,1.80
2019,10,26,08,38,1.80
2019,10,26,08,39,1.90
2019,10,26,08,40,1.90
2019,10,26,08,41,1.90
2019,10,26,08,42,1.90
2019,10,26,08,43,1.90
2019,10,26,08,44,1.90
2019,10,26,08,45,2.00
2019,10,26,08,46,1.90
2019,10,26,08,47,1.90
2019,10,26,08,48,1.90
2019,10,26,08,49,1.90
2019,10,26,08,50,1.90
2019,10,26,08,51,1.90
2019,10,26,08,52,1.90
2019,10,26,08,53,1.90
2019,10,26,08,54,1.90
2019,10,26,08,55,1.90
2019,10,26,08,56,1.90
2019,10,26,08,57,1.90
2019,10,26,08,58,1.90
2019,10,26,08,59,2.00
2019,10,26,09,00,2.00
2019,10,26,09,01,2.00
2019,10,26,09,02,2.10
2019,10,26,09,03,2.10
2019,10,26,09,04,2.10
2019,10,26,09,05,2.10
2019,10,26,09,06,2.10
2019,10,26,09,07,2.10
2019,10,26,09,08,2.10
2019,10,26,09,09,2.20
2019,10,26,09,10,2.20
2019,10,26,09,11,2.20
2019,10,26,09,12,2.20
2019,10,26,09,13,2.30
2019,10,26,09,14,2.30
2019,10,26,09,15,2.30
2019,10,26,09,16,2.30
2019,10,26,09,17,2.30
2019,10,26,09,18,2.30
2019,10,26,09,19,2.30
2019,10,26,09,20,2.30
2019,10,26,09,21,2.30
2019,10,26,09,22,2.20
2019,10,26,09,23,2.20
2019,10,26,09,24,2.20
2019,10,26,09,25,2.20
2019,10,26,09,26,2.20
2019,10,26,09,27,2.20
2019,10,26,09,28,2.20
2019,10,26,09,29,2.20
2019,10,26,09,30,2.20
2019,10,26,09,31,2.20
2019,10,26,09,32,2.20
2019,10,26,09,33,2.20
2019,10,26,09,34,2.30
2019,10,26,09,35,2.30
2019,10,26,09,36,2.30
2019,10,26,09,37,2.40
2019,10,26,09,38,2.40
2019,10,26,09,39,2.40
2019,10,26,09,40,2.50
2019,10,26,09,41,2.50
2019,10,26,09,42,2.60
2019,10,26,09,43,2.60
2019,10,26,09,44,2.60
2019,10,26,09,45,2.60
2019,10,26,09,46,2.60
2019,10,26,09,47,2.70
2019,10,26,09,48,2.70
2019,10,26,09,49,2.70
2019,10,26,09,50,2.70
2019,10,26,09,51,2.70
2019,10,26,09,52,2.70
2019,10,26,09,53,2.70
2019,10,26,09,54,2.70
2019,10,26,09,55,2.70
2019,10,26,09,56,2.80
2019,10,26,09,57,2.80
2019,10,26,09,58,2.80
2019,10,26,09,59,2.80
2019,10,26,10,00,2.80
2019,10,26,10,01,2.80
2019,10,26,10,02,2.90
2019,10,26,10,03,2.90
2019,10,26,10,04,2.90
2019,10,26,10,05,2.90
2019,10,26,10,06,3.00
2019,10,26,10,07,3.00
2019,10,26,10,08,3.00
2019,10,26,10,09,3.00
2019,10,26,10,10,3.00
2019,10,26,10,11,3.10
2019,10,26,10,12,3.10
2019,10,26,10,13,3.10
2019,10,26,10,14,3.10
2019,10,26,10,15,3.10
2019,10,26,10,16,3.10
2019,10,26,10,17,3.20
2019,10,26,10,18,3.20
2019,10,26,10,19,3.20
2019,10,26,10,20,3.20
2019,10,26,10,21,3.20
2019,10,26,10,22,3.20
2019,10,26,10,23,3.30
2019,10,26,10,24,3.30
2019,10,26,10,25,3.30
2019,10,26,10,26,3.30
2019,10,26,10,27,3.30
2019,10,26,10,28,3.30
2019,10,26,10,29,3.30
2019,10,26,10,30,3.30
2019,10,26,10,31,3.30
2019,10,26,10,32,3.30
2019,10,26,10,33,3.30
2019,10,26,10,34,3.30
2019,10,26,10,35,3.30
2019,10,26,10,36,3.30
2019,10,26,10,37,3.40
2019,10,26,10,38,3.40
2019,10,26,10,39,3.40
2019,10,26,10,40,3.40
2019,10,26,10,41,3.40
2019,10,26,10,42,3.60
2019,10,26,10,43,3.60
2019,10,26,10,44,3.60
2019,10,26,10,45,3.60
2019,10,26,10,46,3.60
2019,10,26,10,47,3.60
2019,10,26,10,48,3.70
2019,10,26,10,49,3.70
2019,10,26,10,50,3.70
2019,10,26,10,51,3.70
2019,10,26,10,52,3.70
2019,10,26,10,53,3.70
2019,10,26,10,54,3.80
2019,10,26,10,55,3.80
2019,10,26,10,56,3.80
2019,10,26,10,57,3.80
2019,10,26,10,58,3.90
2019,10,26,10,59,3.90
2019,10,26,11,00,3.90
2019,10,26,11,01,4.00
2019,10,26,11,02,4.10
2019,10,26,11,03,4.10
2019,10,26,11,04,4.10
2019,10,26,11,05,4.20
2019,10,26,11,06,4.20
2019,10,26,11,07,4.20
2019,10,26,11,08,4.30
2019,10,26,11,09,4.40
2019,10,26,11,10,4.40
2019,10,26,11,11,4.60
2019,10,26,11,12,4.60
2019,10,26,11,13,4.70
2019,10,26,11,14,4.70
2019,10,26,11,15,4.80
2019,10,26,11,16,4.80
2019,10,26,11,17,4.90
2019,10,26,11,18,5.00
2019,10,26,11,19,4.90
2019,10,26,11,20,4.90
2019,10,26,11,21,4.80
2019,10,26,11,22,4.80
2019,10,26,11,23,4.80
2019,10,26,11,24,4.90
2019,10,26,11,25,4.90
2019,10,26,11,26,4.90
2019,10,26,11,27,4.90
2019,10,26,11,28,5.00
2019,10,26,11,29,5.10
2019,10,26,11,30,5.10
2019,10,26,11,31,5.20
2019,10,26,11,32,5.20
2019,10,26,11,33,5.30
2019,10,26,11,34,5.30
2019,10,26,11,35,5.30
2019,10,26,11,36,5.40
2019,10,26,11,37,5.40
2019,10,26,11,38,5.30
2019,10,26,11,39,5.30
2019,10,26,11,40,5.30
2019,10,26,11,41,5.40
2019,10,26,11,42,5.50
2019,10,26,11,43,5.60
2019,10,26,11,44,5.70
2019,10,26,11,45,5.80
2019,10,26,11,46,5.90
2019,10,26,11,47,6.10
2019,10,26,11,48,6.10
2019,10,26,11,49,6.20
2019,10,26,11,50,6.30
2019,10,26,11,51,6.30
2019,10,26,11,52,6.40
2019,10,26,11,53,6.50
2019,10,26,11,54,6.50
2019,10,26,11,55,6.50
2019,10,26,11,56,6.60
2019,10,26,11,57,6.60
2019,10,26,11,58,6.70
2019,10,26,11,59,6.80
2019,10,26,12,00,6.80
2019,10,26,12,01,6.80
2019,10,26,12,02,6.90
2019,10,26,12,03,6.90
2019,10,26,12,04,7.10
2019,10,26,12,05,7.20
2019,10,26,12,06,7.30
2019,10,26,12,07,7.30
2019,10,26,12,08,7.40
2019,10,26,12,09,7.60
2019,10,26,12,10,7.60
2019,10,26,12,11,7.70
2019,10,26,12,12,7.80
2019,10,26,12,13,7.90
2019,10,26,12,14,8.00
2019,10,26,12,15,8.10
2019,10,26,12,16,8.20
2019,10,26,12,17,8.30
2019,10,26,12,18,8.40
2019,10,26,12,19,8.60
2019,10,26,12,20,8.60
2019,10,26,12,21,8.70
2019,10,26,12,22,8.70
2019,10,26,12,23,8.80
2019,10,26,12,24,8.80
2019,10,26,12,25,8.90
2019,10,26,12,26,8.90
2019,10,26,12,27,9.00
2019,10,26,12,28,9.10
2019,10,26,12,29,9.10
2019,10,26,12,30,9.20
2019,10,26,12,31,9.20
2019,10,26,12,32,9.30
2019,10,26,12,33,9.30
2019,10,26,12,34,9.30
2019,10,26,12,35,9.40
2019,10,26,12,36,9.40
2019,10,26,12,37,9.60
2019,10,26,12,38,9.70
2019,10,26,12,39,9.70
2019,10,26,12,40,9.80
2019,10,26,12,41,9.80
2019,10,26,12,42,9.80
2019,10,26,12,43,9.90
2019,10,26,12,44,10.00
2019,10,26,12,45,10.10
2019,10,26,12,46,10.10
2019,10,26,12,47,10.20
2019,10,26,12,48,10.20
2019,10,26,12,49,10.30
2019,10,26,12,50,10.30
2019,10,26,12,51,10.40
2019,10,26,12,52,10.50
2019,10,26,12,53,10.60
2019,10,26,12,54,10.70
2019,10,26,12,55,10.70
2019,10,26,12,56,10.80
2019,10,26,12,57,10.90
2019,10,26,12,58,10.90
2019,10,26,12,59,10.90
2019,10,26,13,00,11.00
2019,10,26,13,01,11.10
2019,10,26,13,02,11.10
2019,10,26,13,03,11.20
2019,10,26,13,04,11.30
2019,10,26,13,05,11.30
2019,10,26,13,06,11.40
2019,10,26,13,07,11.60
2019,10,26,13,08,11.60
2019,10,26,13,09,11.70
2019,10,26,13,10,11.70
2019,10,26,13,11,11.80
2019,10,26,13,12,11.80
2019,10,26,13,13,11.90
2019,10,26,13,14,12.00
2019,10,26,13,15,12.20
2019,10,26,13,16,12.30
2019,10,26,13,17,12.40
2019,10,26,13,18,12.60
2019,10,26,13,19,12.70
2019,10,26,13,20,12.80
2019,10,26,13,21,12.80
2019,10,26,13,22,12.90
2019,10,26,13,23,13.10
2019,10,26,13,24,13.20
2019,10,26,13,25,13.30
2019,10,26,13,26,13.40
2019,10,26,13,27,13.50
2019,10,26,13,28,13.60
2019,10,26,13,29,13.70
2019,10,26,13,30,13.70
2019,10,26,13,31,13.80
2019,10,26,13,32,13.90
2019,10,26,13,33,13.90
2019,10,26,13,34,14.00
2019,10,26,13,35,14.00
2019,10,26,13,36,14.10
2019,10,26,13,37,14.10
2019,10,26,13,38,14.10
2019,10,26,13,39,14.10
2019,10,26,13,40,14.20
2019,10,26,13,41,14.20
2019,10,26,13,42,14.20
2019,10,26,13,43,14.20
2019,10,26,13,44,14.20
2019,10,26,13,45,14.20
2019,10,26,13,46,14.20
2019,10,26,13,47,14.30
2019,10,26,13,48,14.30
2019,10,26,13,49,14.30
2019,10,26,13,50,14.30
2019,10,26,13,51,14.30
2019,10,26,13,52,14.30
2019,10,26,13,53,14.30
2019,10,26,13,54,14.40
2019,10,26,13,55,14.50
2019,10,26,13,56,14.60
2019,10,26,13,57,14.70
2019,10,26,13,58,14.70
2019,10,26,13,59,14.70
2019,10,26,14,00,14.80
2019,10,26,14,01,14.80
2019,10,26,14,02,14.80
2019,10,26,14,03,14.80
2019,10,26,14,04,14.80
2019,10,26,14,05,14.80
2019,10,26,14,06,14.80
2019,10,26,14,07,14.80
2019,10,26,14,08,14.80
2019,10,26,14,09,14.80
2019,10,26,14,10,14.80
2019,10,26,14,11,14.90
2019,10,26,14,12,14.90
2019,10,26,14,13,15.00
2019,10,26,14,14,15.00
2019,10,26,14,15,15.10
2019,10,26,14,16,15.10
2019,10,26,14,17,15.20
2019,10,26,14,18,15.20
2019,10,26,14,19,15.20
2019,10,26,14,20,15.10
2019,10,26,14,21,15.10
2019,10,26,14,22,15.00
2019,10,26,14,23,15.10
2019,10,26,14,24,15.00
2019,10,26,14,25,15.10
2019,10,26,14,26,15.10
2019,10,26,14,27,15.10
2019,10,26,14,28,15.20
2019,10,26,14,29,15.20
2019,10,26,14,30,15.20
2019,10,26,14,31,15.20
2019,10,26,14,32,15.20
2019,10,26,14,33,15.30
2019,10,26,14,34,15.20
2019,10,26,14,35,15.20
2019,10,26,14,36,15.20
2019,10,26,14,37,15.10
2019,10,26,14,38,15.10
2019,10,26,14,39,15.10
2019,10,26,14,40,15.10
2019,10,26,14,41,15.10
2019,10,26,14,42,15.10
2019,10,26,14,43,15.10
2019,10,26,14,44,15.10
2019,10,26,14,45,15.20
2019,10,26,14,46,15.20
2019,10,26,14,47,15.30
2019,10,26,14,48,15.40
2019,10,26,14,49,15.40
2019,10,26,14,50,15.50
2019,10,26,14,51,15.50
2019,10,26,14,52,15.60
2019,10,26,14,53,15.60
2019,10,26,14,54,15.60
2019,10,26,14,55,15.60
2019,10,26,14,56,15.60
2019,10,26,14,57,15.60
2019,10,26,14,58,15.40
2019,10,26,14,59,15.40
2019,10,26,15,00,15.40
2019,10,26,15,01,15.40
2019,10,26,15,02,15.50
2019,10,26,15,03,15.60
2019,10,26,15,04,15.60
2019,10,26,15,05,15.60
2019,10,26,15,06,15.60
2019,10,26,15,07,15.70
2019,10,26,15,08,15.70
2019,10,26,15,09,15.60
2019,10,26,15,10,15.60
2019,10,26,15,11,15.60
2019,10,26,15,12,15.60
2019,10,26,15,13,15.60
2019,10,26,15,14,15.70
2019,10,26,15,15,15.80
2019,10,26,15,16,15.80
2019,10,26,15,17,15.80
2019,10,26,15,18,15.80
2019,10,26,15,19,15.90
2019,10,26,15,20,15.90
2019,10,26,15,21,15.80
2019,10,26,15,22,15.70
2019,10,26,15,23,15.50
2019,10,26,15,24,15.40
2019,10,26,15,25,15.30
2019,10,26,15,26,15.30
2019,10,26,15,27,15.30
2019,10,26,15,28,15.40
2019,10,26,15,29,15.40
2019,10,26,15,30,15.50
2019,10,26,15,31,15.40
2019,10,26,15,32,15.40
2019,10,26,15,33,15.40
2019,10,26,15,34,15.40
2019,10,26,15,35,15.40
2019,10,26,15,36,15.40
2019,10,26,15,37,15.40
2019,10,26,15,38,15.40
2019,10,26,15,39,15.40
2019,10,26,15,40,15.40
2019,10,26,15,41,15.40
2019,10,26,15,42,15.50
2019,10,26,15,43,15.50
2019,10,26,15,44,15.60
2019,10,26,15,45,15.60
2019,10,26,15,46,15.60
2019,10,26,15,47,15.60
2019,10,26,15,48,15.60
2019,10,26,15,49,15.60
2019,10,26,15,50,15.60
2019,10,26,15,51,15.60
2019,10,26,15,52,15.60
2019,10,26,15,53,15.60
2019,10,26,15,54,15.60
2019,10,26,15,55,15.60
2019,10,26,15,56,15.60
2019,10,26,15,57,15.60
2019,10,26,15,58,15.70
2019,10,26,15,59,15.70
2019,10,26,16,00,15.80
2019,10,26,16,01,15.80
2019,10,26,16,02,15.80
2019,10,26,16,03,15.90
2019,10,26,16,04,15.90
2019,10,26,16,05,15.90
2019,10,26,16,06,15.90
2019,10,26,16,07,15.90
2019,10,26,16,08,15.90
2019,10,26,16,09,15.90
2019,10,26,16,10,15.90
2019,10,26,16,11,15.90
2019,10,26,16,12,15.90
2019,10,26,16,13,15.90
2019,10,26,16,14,15.90
2019,10,26,16,15,15.80
2019,10,26,16,16,15.80
2019,10,26,16,17,15.80
2019,10,26,16,18,15.80
2019,10,26,16,19,15.70
2019,10,26,16,20,15.70
2019,10,26,16,21,15.70
2019,10,26,16,22,15.60
2019,10,26,16,23,15.50
2019,10,26,16,24,15.40
2019,10,26,16,25,15.30
2019,10,26,16,26,15.30
2019,10,26,16,27,15.30
2019,10,26,16,28,15.30
2019,10,26,16,29,15.30
2019,10,26,16,30,15.30
2019,10,26,16,31,15.30
2019,10,26,16,32,15.30
2019,10,26,16,33,15.30
2019,10,26,16,34,15.30
2019,10,26,16,35,15.30
2019,10,26,16,36,15.30
2019,10,26,16,37,15.30
2019,10,26,16,38,15.30
2019,10,26,16,39,15.30
2019,10,26,16,40,15.30
2019,10,26,16,41,15.30
2019,10,26,16,42,15.20
2019,10,26,16,43,15.20
2019,10,26,16,44,15.20
2019,10,26,16,45,15.20
2019,10,26,16,46,15.20
2019,10,26,16,47,15.10
2019,10,26,16,48,15.10
2019,10,26,16,49,15.10
2019,10,26,16,50,15.10
2019,10,26,16,51,15.00
2019,10,26,16,52,15.00
2019,10,26,16,53,14.90
2019,10,26,16,54,14.90
2019,10,26,16,55,14.80
2019,10,26,16,56,14.80
2019,10,26,16,57,14.80
2019,10,26,16,58,14.70
2019,10,26,16,59,14.70
2019,10,26,17,00,14.70
2019,10,26,17,01,14.70
2019,10,26,17,02,14.60
2019,10,26,17,03,14.60
2019,10,26,17,04,14.60
2019,10,26,17,05,14.60
2019,10,26,17,06,14.50
2019,10,26,17,07,14.40
2019,10,26,17,08,14.40
2019,10,26,17,09,14.40
2019,10,26,17,10,14.30
2019,10,26,17,11,14.30
2019,10,26,17,12,14.20
2019,10,26,17,13,14.20
2019,10,26,17,14,14.10
2019,10,26,17,15,14.10
2019,10,26,17,16,14.10
2019,10,26,17,17,14.00
2019,10,26,17,18,14.00
2019,10,26,17,19,13.90
2019,10,26,17,20,13.90
2019,10,26,17,21,13.80
2019,10,26,17,22,13.80
2019,10,26,17,23,13.80
2019,10,26,17,24,13.70
2019,10,26,17,25,13.70
2019,10,26,17,26,13.70
2019,10,26,17,27,13.60
2019,10,26,17,28,13.60
2019,10,26,17,29,13.60
2019,10,26,17,30,13.60
2019,10,26,17,31,13.50
2019,10,26,17,32,13.50
2019,10,26,17,33,13.40
2019,10,26,17,34,13.40
2019,10,26,17,35,13.40
2019,10,26,17,36,13.40
2019,10,26,17,37,13.40
2019,10,26,17,38,13.40
2019,10,26,17,39,13.30
2019,10,26,17,40,13.30
2019,10,26,17,41,13.30
2019,10,26,17,42,13.30
2019,10,26,17,43,13.30
2019,10,26,17,44,13.20
2019,10,26,17,45,13.20
2019,10,26,17,46,13.20
2019,10,26,17,47,13.20
2019,10,26,17,48,13.20
2019,10,26,17,49,13.20
2019,10,26,17,50,13.20
2019,10,26,17,51,13.10
2019,10,26,17,52,13.10